map of OHD home
OHD - Airport
Location
City:  Ohrid, Macedonia (Republic of)
Name:Ohrid St. Paul the Apostle Airport
ICAO:LWOH
IATA:OHD

Details
Type:Airport (Aerodrome, Airfield)
Use:Public/Civil
Latitude:4110'48"N (41.179956)
Longitude:2044'32"E (20.742325)
Datum:WGS 1984
Elevation:2313 ft (705 m)
Variation:4.27E (WMM2015 magnetic declination)
0.10 annual change
Runways:1
Longest:8366 × 140 ft (2550 × 42.5 m), paved

Time
Time Zone:UTC+1 (DST+2)
Local Time:

Weather
METAR:LWOH 161230Z 36006KT 9999 FEW020 OVC037 01/M05 Q1008
TAF:LWOH 161130Z 1612/1712 36008KT 9999 SCT020 OVC035
TEMPO 1612/1624 3000 SN SCT010 OVC025

Related Locations
Nearby:
Farthest:CHT: 11545 mi / 18580 km
Waitangi [Tuuta], CIT, NZ

Find:

   beyond  
but within

Other Information
Maps:
NOTAMs:
Links:
Sources:

  
flag of Macedonia (Republic of)   

Sectional Chart

Flight Planning
at skyvector.com

Satellite Image

Google Maps Satellite view

 

Copyright © 2004-2017 Karl L. Swartz. All rights reserved.
The Great Circle Mapper name and logo are trademarks of the Great Circle Mapper.
All other trademarks mentioned herein belong to their respective owners.
Please see credits for attibutions and further copyright information.

  Follow gcmap on Facebook Follow gcmap on Twitter Follow gcmap on Google+ GCmap on LinkedIn

hCard Microformat

Geo Microformat